DW8248 Weather Reports


time (UTC)temp
C
wind
direction
speed
KPH
gust
KPH
rain 1hr
cm
rain 24hr
cm
rain mn
cm
humidity
%
barometer
mb
20200407043300 22 108 6.4 19.3 0.00 0.03 0.00 77 1018.9
20200407042226 22 76 8.0 19.3 0.00 0.03 0.00 77 1018.7
20200407041246 22 80 6.4 17.7 0.00 0.03 0.00 76 1018.8
20200407040218 22 105 8.0 19.3 0.00 0.03 0.00 76 1018.6
20200407035232 22 87 6.4 19.3 0.00 0.03 0.03 76 1018.7
20200407034242 22 121 6.4 19.3 0.00 0.03 0.03 75 1018.7
20200407033225 22 123 6.4 17.7 0.00 0.03 0.03 75 1018.8
20200407032200 22 105 4.8 16.1 0.00 0.03 0.03 75 1019.0
20200407031158 22 111 6.4 19.3 0.00 0.08 0.03 75 1019.0
20200407030207 22 127 8.0 19.3 0.00 0.13 0.03 74 1019.0
20200407025137 22 105 6.4 16.1 0.00 0.15 0.03 74 1019.1
20200407024104 22 90 8.0 19.3 0.00 0.18 0.03 74 1018.9
20200407023102 22 119 8.0 19.3 0.00 0.18 0.03 73 1018.8
20200407022100 22 126 8.0 19.3 0.00 0.18 0.03 72 1018.8
20200407021024 22 109 9.7 20.9 0.00 0.18 0.03 73 1018.8
20200407015955 22 95 8.0 24.1 0.00 0.18 0.03 72 1018.7
20200407015016 22 90 9.7 24.1 0.00 0.18 0.03 71 1018.6
20200407014003 22 65 9.7 20.9 0.00 0.18 0.03 72 1018.3
20200407012941 22 38 9.7 20.9 0.00 0.18 0.03 72 1018.3
20200407011933 22 94 9.7 17.7 0.00 0.23 0.03 73 1017.9
20200407010916 22 98 9.7 19.3 0.00 0.25 0.03 72 1017.9
20200407005931 22 94 8.0 24.1 0.00 0.25 0.03 72 1018.0
20200407004904 22 76 11.3 24.1 0.00 0.28 0.03 70 1018.0
20200407003857 22 72 8.0 20.9 0.00 0.33 0.03 71 1017.9
20200407002914 23 65 8.0 19.3 0.00 0.38 0.03 71 1017.9
20200407001935 23 115 8.0 20.9 0.00 0.41 0.03 70 1018.0
20200407000939 23 98 11.3 20.9 0.00 0.46 0.03 70 1018.0
20200406235909 23 62 8.0 20.9 0.00 0.53 0.03 70 1018.1
20200406234926 23 96 8.0 20.9 0.00 0.53 0.03 70 1018.2
20200406233924 23 86 8.0 22.5 0.00 0.58 0.03 68 1018.1
20200406232932 23 67 11.3 22.5 0.00 0.64 0.03 70 1018.0
20200406231915 23 73 9.7 19.3 0.00 0.66 0.03 70 1018.0
20200406230904 23 105 9.7 22.5 0.00 0.69 0.03 70 1017.8
20200406225855 23 93 9.7 22.5 0.00 0.74 0.03 69 1017.8
20200406224849 23 85 8.0 20.9 0.00 0.76 0.03 69 1017.8
20200406223905 23 126 11.3 20.9 0.00 0.81 0.03 68 1017.7
20200406222842 23 77 8.0 19.3 0.00 0.89 0.03 68 1017.8
20200406221856 23 93 9.7 20.9 0.00 0.99 0.03 68 1017.9
20200406220834 23 121 9.7 25.7 0.00 1.12 0.03 69 1017.7
20200406215856 23 66 11.3 25.7 0.00 1.24 0.03 69 1017.5
20200406214837 23 70 11.3 22.5 0.00 1.24 0.03 70 1017.5
20200406213801 23 103 8.0 19.3 0.00 1.27 0.03 70 1017.7
20200406212758 23 88 8.0 19.3 0.00 1.32 0.03 71 1017.4
20200406211733 23 106 9.7 24.1 0.00 1.35 0.03 71 1017.4
20200406210702 23 91 11.3 24.1 0.00 1.42 0.03 71 1017.5
20200406205706 23 117 9.7 24.1 0.00 1.73 0.03 70 1017.4
20200406204711 23 102 9.7 24.1 0.00 1.91 0.03 71 1017.4
20200406203652 24 85 9.7 22.5 0.00 2.03 0.03 71 1017.5
20200406202649 24 59 11.3 22.5 0.00 2.13 0.03 70 1017.3
20200406201625 24 101 11.3 24.1 0.00 2.24 0.03 69 1017.2
20200406200559 24 100 12.9 24.1 0.00 2.31 0.03 67 1017.3
20200406195556 23 78 11.3 22.5 0.00 2.34 0.03 70 1017.5
20200406194557 23 83 11.3 22.5 0.00 2.36 0.03 71 1017.7
20200406193559 23 101 9.7 22.5 0.00 2.46 0.03 71 1017.7
20200406192534 24 123 9.7 17.7 0.00 2.46 0.03 73 1017.8
20200406191555 24 92 9.7 22.5 0.00 2.46 0.03 72 1017.8
20200406190554 24 89 9.7 22.5 0.00 2.49 0.03 72 1017.9
20200406185546 24 96 9.7 20.9 0.00 2.59 0.03 72 1017.8
20200406184527 24 64 9.7 20.9 0.00 2.64 0.03 71 1018.0
20200406183457 24 113 9.7 20.9 0.00 2.64 0.03 70 1018.1
20200406182423 24 136 9.7 20.9 0.00 2.64 0.03 71 1018.1
20200406181401 23 96 11.3 20.9 0.00 2.64 0.03 70 1018.3
20200406180401 24 111 11.3 25.7 0.00 2.64 0.03 70 1018.3
20200406175405 24 74 9.7 25.7 0.00 2.64 0.03 71 1018.4
20200406174358 23 113 11.3 24.1 0.00 2.64 0.03 69 1018.3
20200406173356 23 70 11.3 22.5 0.00 2.64 0.03 69 1018.4
20200406172343 23 63 11.3 24.1 0.00 2.64 0.03 70 1018.7
20200406171345 23 115 9.7 25.7 0.00 2.64 0.03 71 1018.7
20200406170349 23 82 12.9 25.7 0.00 2.64 0.03 71 1018.9
20200406165324 23 80 12.9 25.7 0.00 2.64 0.03 71 1018.9
20200406164247 23 85 11.3 24.1 0.00 2.64 0.03 72 1018.9
20200406163251 23 108 11.3 24.1 0.00 2.64 0.03 73 1018.9
20200406162231 23 137 11.3 24.1 0.00 2.64 0.03 72 1019.0
20200406161241 23 80 11.3 27.4 0.00 2.64 0.03 72 1019.1
20200406160250 23 119 11.3 27.4 0.00 2.64 0.03 72 1019.2
20200406155217 23 90 11.3 24.1 0.00 2.64 0.03 73 1019.1
20200406154201 23 79 11.3 25.7 0.00 2.64 0.03 73 1018.9
20200406153216 23 111 11.3 25.7 0.00 2.64 0.03 74 1019.0
20200406152144 23 119 12.9 25.7 0.00 2.64 0.03 72 1019.1
20200406151151 23 94 11.3 24.1 0.00 2.64 0.03 71 1019.0
20200406150126 23 59 11.3 22.5 0.00 2.64 0.03 73 1018.9
20200406145116 22 105 9.7 27.4 0.00 2.64 0.03 77 1018.8
20200406144117 22 89 14.5 27.4 0.00 2.64 0.03 77 1018.7
20200406143103 22 73 11.3 27.4 0.00 2.64 0.03 76 1018.8
20200406142032 22 106 12.9 27.4 0.00 2.64 0.03 76 1018.5
20200406141047 23 115 11.3 22.5 0.00 2.64 0.03 75 1018.6
20200406140050 22 101 11.3 22.5 0.00 2.64 0.03 74 1018.7
20200406135102 22 98 11.3 25.7 0.00 2.64 0.03 72 1018.6
20200406134117 22 121 12.9 25.7 0.00 2.64 0.03 73 1018.4
20200406133122 22 59 11.3 22.5 0.00 2.64 0.03 75 1018.4
20200406132121 22 90 11.3 25.7 0.00 2.64 0.03 76 1018.3
20200406131102 22 72 11.3 25.7 0.00 2.64 0.03 75 1018.1
20200406130052 22 84 11.3 25.7 0.00 2.64 0.03 74 1018.0
20200406125015 22 40 12.9 24.1 0.00 2.64 0.03 76 1017.9
20200406124017 22 96 12.9 24.1 0.00 2.64 0.03 77 1017.9
20200406123031 22 92 11.3 25.7 0.00 2.64 0.03 78 1017.8
20200406122034 22 98 12.9 25.7 0.00 2.64 0.03 77 1017.7
20200406121047 22 84 9.7 20.9 0.00 2.64 0.03 77 1017.5
20200406120021 22 104 9.7 20.9 0.00 2.64 0.03 77 1017.4
20200406115014 22 84 9.7 22.5 0.00 2.64 0.03 76 1017.2
20200406113939 22 117 11.3 22.5 0.00 2.64 0.03 76 1016.9
20200406112928 21 71 9.7 20.9 0.00 2.64 0.03 76 1016.9
20200406111935 21 111 9.7 22.5 0.00 2.64 0.03 77 1016.7
20200406110918 21 82 9.7 22.5 0.00 2.64 0.03 76 1016.6
20200406105918 21 66 11.3 22.5 0.00 2.64 0.03 75 1016.4
20200406104842 21 34 9.7 19.3 0.00 2.64 0.03 77 1016.4
20200406103856 21 109 11.3 19.3 0.00 2.64 0.03 81 1016.3
20200406102842 21 67 8.0 17.7 0.00 2.64 0.03 82 1016.2
20200406101855 21 79 6.4 19.3 0.00 2.64 0.03 84 1016.2
20200406100911 21 76 8.0 20.9 0.00 2.64 0.03 84 1016.0
20200406095925 21 73 9.7 20.9 0.00 2.64 0.03 84 1016.1
20200406094921 21 89 9.7 22.5 0.00 2.64 0.03 83 1016.2
20200406093937 21 67 8.0 22.5 0.00 2.64 0.03 81 1016.2
20200406092913 21 69 9.7 20.9 0.00 2.64 0.03 81 1016.0
20200406091859 21 79 8.0 20.9 0.00 2.64 0.03 82 1016.1
20200406090906 21 71 8.0 25.7 0.00 2.64 0.03 83 1015.9
20200406085922 21 91 11.3 25.7 0.00 2.64 0.03 83 1016.0
20200406084939 21 82 11.3 25.7 0.00 2.64 0.03 83 1015.7
20200406083947 21 110 12.9 24.1 0.00 2.64 0.03 83 1015.6
20200406082918 21 88 11.3 20.9 0.00 2.64 0.03 83 1015.5
20200406081938 21 92 11.3 24.1 0.00 2.64 0.03 84 1015.7
20200406080911 21 102 11.3 25.7 0.00 2.64 0.03 83 1015.7
20200406075848 21 107 11.3 25.7 0.00 2.64 0.03 84 1015.9
20200406074820 21 103 12.9 22.5 0.00 2.64 0.03 85 1015.9
20200406073759 21 115 9.7 20.9 0.00 2.64 0.03 85 1015.9
20200406072724 21 67 9.7 20.9 0.00 2.64 0.03 85 1015.9
20200406071710 21 127 9.7 20.9 0.00 2.64 0.03 82 1015.9
20200406070718 21 124 9.7 22.5 0.00 2.64 0.03 81 1016.0
20200406065709 21 92 9.7 22.5 0.00 2.64 0.03 80 1016.2
20200406064645 21 112 9.7 20.9 0.00 2.64 0.03 80 1016.4
20200406063700 21 104 11.3 22.5 0.00 2.64 0.03 80 1016.4
20200406062637 21 115 11.3 24.1 0.00 2.64 0.03 81 1016.3
20200406061608 20 133 14.5 25.7 0.00 2.64 0.03 84 1016.3
20200406060623 20 97 14.5 27.4 0.00 2.64 0.03 85 1016.4
20200406055558 20 97 16.1 29.0 0.00 2.64 0.03 85 1016.5
20200406054604 21 109 16.1 29.0 0.00 2.64 0.03 84 1016.5
20200406053559 21 113 12.9 25.7 0.00 2.64 0.03 82 1016.5
20200406052524 20 111 11.3 22.5 0.00 2.64 0.03 86 1016.6
20200406051504 20 123 11.3 22.5 0.00 2.64 0.03 89 1016.7
20200406050443 20 105 9.7 29.0 0.00 2.64 0.03 91 1016.9
20200406045411 20 105 11.3 29.0 0.00 2.64 0.03 92 1017.0
20200406044336 19 86 9.7 20.9 0.00 2.62 0.00 93 1017.2